Regional Weather Roundup
Issued by NWS Midland/Odessa, TX

Home | Current Version | Previous Version | Text Only | Print | Product List | Glossary On
Versions: 1 2 3 4 5 6 7 8 9 10 11 12 13 14 15 16 17 18 19 20 21 22 23 24 25 26 27 28 29 30 31 32 33 34 35 36 37 38 39 40 41 42 43 44 45 46 47 48 49 50
000
ASUS44 KMAF 310510
RWRMAF
MIDLAND AREA WEATHER ROUNDUP
NATIONAL WEATHER SERVICE MIDLAND TX
1200 AM CDT TUE MAR 31 2015

...IN SOUTHWEST TEXAS AND SOUTHEAST NEW MEXICO...

CITY           SKY/WX    TMP DP  RH WIND       PRES   REMARKS
ALPINE         CLOUDY    62  47  59 CALM      30.20F
ANDREWS        FAIR      64  53  67 S7        30.08S
ARTESIA        MOCLDY    59  48  67 CALM      30.10S
BIG SPRING     CLOUDY    71  54  55 S9        30.07S
CARLSBAD       MOCLDY    61  49  64 S7        30.06F
DRYDEN           N/A     67  60  78 CALM      30.07S
FORT STOCKTON  CLOUDY    68  54  60 S12       30.07F
GUAD PASS      CLOUDY    68  28  22 S9        30.20S
HOBBS          MOCLDY    59  48  67 SW6       30.09F
MARFA          CLOUDY    57  37  47 N9        30.18F
MIDLAND AIRPK  CLOUDY    70  55  57 S8        30.07S
MIDLAND INTL   CLOUDY    69  55  60 S12       30.06S
ODESSA         CLOUDY    69  55  60 S12       30.07F
PECOS          CLOUDY    64  54  70 N5        30.03F
PRESIDIO       FAIR      72  47  40 N8        30.05S
SEMINOLE       MOCLDY    59  50  72 CALM      30.09S
SNYDER         MOCLDY    65  53  66 S7        30.05S
WINK           CLOUDY    67  53  61 SE7       30.04F
$$
...OTHER STATIONS IN TEXAS...

CITY           SKY/WX    TMP DP  RH WIND       PRES   REMARKS
ABILENE        MOCLDY    71  59  65 S10       30.02S
AMARILLO       PTCLDY    61  44  53 S13       30.05S
AUSTIN         MOCLDY    67  63  87 S9        30.09R
BROWNSVILLE    CLEAR     69  67  93 SE6       30.11F
CORPUS CHRISTI PTCLDY    68  66  93 SE12      30.10F
DALLAS FTW     MOCLDY    67  63  87 S8        30.01F
DEL RIO        PTCLDY    71  63  75 E10       30.04S
EL PASO        MOCLDY    71  28  20 S6        30.07S
HOUSTON INT    PTCLDY    69  63  81 S8        30.12S
LUBBOCK        PTCLDY    55  46  71 SE8       30.06F
SAN ANGELO     CLOUDY    68  58  70 SW7       30.04F
SAN ANTONIO    PTCLDY    68  64  87 SE10      30.10F
WACO           CLEAR     64  61  90 S7        30.04F
WICHITA FALLS  NOT AVBL
$$
...OTHER LOCATIONS IN NEW MEXICO...

CITY           SKY/WX    TMP DP  RH WIND       PRES   REMARKS
ALAMAGORDO     PTCLDY    68  27  21 N8        30.11R
ALBUQUERQUE    PTCLDY    65  21  18 E6        30.14S
CANNON AFB     PTCLDY    58  42  56 SW1       30.08F
CLOVIS         PTCLDY    48  39  71 SE3       30.08F
HOLLOMAN AFB   CLOUDY    69  29  22 NE9       30.09R
ROSWELL        PTCLDY    57  47  69 E6        30.08F
RUIDOSO        MOCLDY    59  27  29 SW8       30.29R
SANTA FE       PTCLDY    51  21  30 NE10      30.19F
TRUTH OR CONSE PTCLDY    61  27  27 NW8       30.12S
TUCUMCARI      CLEAR     56  36  47 W5        30.04F
$$



USA.gov is the U.S. government's official web portal to all federal, state and local government web resources and services.